Location: Maiden_LMO
(35.5760°N, 81.2120°W)
Time: 15:43:48
(UTC-04:00)

ADEOS II - Visible Passes

Search period start: 23 August 2017 00:00
Search period end: 02 September 2017 00:00
Orbit: 799 x 802 km, 98.4° (Epoch: 22 August)

Date Brightness Start Highest point End Pass type
(mag) Time Alt. Az. Time Alt. Az. Time Alt. Az.
23 Aug 2.1 05:00:01 10° NNE 05:05:17 82° ESE 05:08:35 24° S visible
24 Aug 3.0 04:33:49 10° NNE 04:38:50 44° E 04:41:47 23° SSE visible
24 Aug 3.5 06:14:27 10° NNW 06:18:11 20° WNW 06:21:55 10° WSW visible
25 Aug 4.0 04:08:03 10° NE 04:12:17 24° E 04:14:58 17° SE visible
25 Aug 2.8 05:47:17 10° N 05:52:01 35° WNW 05:55:55 14° SW visible
26 Aug 4.6 03:43:15 10° ENE 03:45:39 13° E 03:48:03 10° ESE visible
26 Aug 2.1 05:20:33 10° N 05:25:44 63° WNW 05:29:06 22° SSW visible
27 Aug 2.2 04:54:06 10° NNE 04:59:22 72° ESE 05:02:18 27° S visible
28 Aug 3.2 04:27:59 10° NNE 04:32:54 39° E 04:35:29 24° SSE visible
28 Aug 3.3 06:08:19 10° NNW 06:12:19 23° WNW 06:16:19 10° WSW visible
29 Aug 4.1 04:02:21 10° NE 04:06:20 22° E 04:08:40 16° SE visible
29 Aug 2.6 05:41:16 10° N 05:46:08 39° WNW 05:49:37 18° SW visible
30 Aug 4.7 03:38:04 10° ENE 03:39:40 11° E 03:41:17 10° ESE visible
30 Aug 2.0 05:14:35 10° N 05:19:50 71° WNW 05:22:48 26° SSW visible
31 Aug 2.4 04:48:13 10° NNE 04:53:26 64° E 04:55:59 30° S visible
31 Aug 3.8 06:29:50 10° NNW 06:32:34 14° WNW 06:35:18 10° W visible
01 Sep 3.4 04:22:11 10° NNE 04:26:57 34° E 04:29:11 24° SE visible
01 Sep 3.2 06:02:14 10° NNW 06:06:27 25° WNW 06:10:07 12° WSW visible
